Weather History for KBKE - November, 2013

Change the Weather History Date:

Saturday, November 2, 2013

  Actual Average Record
Temperature  
Mean Temperature 40 °F 38 °F  
Max Temperature 54 °F 51 °F 66 °F (1981)
Min Temperature 26 °F 25 °F 3 °F (2002)
Degree Days  
Heating Degree Days 25 27  
Month to date heating degree days 53 53  
Since 1 July heating degree days 1044 1132  
Cooling Degree Days 0 0  
Month to date cooling degree days 0 0  
Year to date cooling degree days 258 169  
Moisture  
Dew Point 33 °F    
Average Humidity 64    
Maximum Humidity 86    
Minimum Humidity 42    
Precipitation  
Precipitation 0.05 in 0.02 in 0.25 in (1987)
Month to date precipitation 0.05 0.05  
Year to date precipitation 7.99 8.30  
Sea Level Pressure  
Sea Level Pressure 29.89 in    
Wind  
Wind Speed 11 mph (ESE)    
Max Wind Speed 25 mph    
Max Gust Speed 31 mph    
Visibility 10 miles    
Events Rain    
T = Trace of Precipitation, MM = Missing Value Source: NWS Daily Summary

Daily Weather History Graph

Daily Weather History Graph

Search for Another Location

Airport or City:

Trip Planner

Search our weather history database for the weather conditions in past years. The results will help you decide how hot, cold, wet, or windy it might be!

Date:

Astronomy

Nov. 02, 2013 Rise Set
Actual Time 7:31 AM PDT 5:37 PM PDT
Civil Twilight 7:00 AM PDT 6:08 PM PDT
Nautical Twilight 6:25 AM PDT 6:43 PM PDT
Astronomical Twilight 5:51 AM PDT 7:17 PM PDT
Moon 6:32 AM PDT (11/2) 5:13 PM PDT (11/2)
Length of Visible Light 11h 07m
Length of Day
10h 06m
Waning Crescent, 1% of the Moon is Illuminated
Nov 2
Waning Crescent
Nov 3
New
Nov 9
First Quarter
Nov 17
Full
Nov 25
Last Quarter

Hourly Weather History & Observations

Time (PDT) Temp. Windchill Dew Point Humidity Pressure Visibility Wind Dir Wind Speed Gust Speed Precip Events Conditions
12:53 AM 41.0 °F 35.8 °F 37.0 °F 86% 30.06 in 10.0 mi East 8.1 mph - N/A   Scattered Clouds
1:53 AM 39.0 °F 32.3 °F 36.0 °F 89% 30.04 in 10.0 mi East 10.4 mph - N/A   Clear
2:53 AM 41.0 °F 34.3 °F 37.0 °F 86% 29.99 in 10.0 mi East 11.5 mph - N/A   Clear
3:53 AM 41.0 °F 34.7 °F 37.0 °F 86% 29.96 in 10.0 mi East 10.4 mph - N/A   Clear
4:53 AM 43.0 °F 36.8 °F 37.9 °F 82% 29.92 in 10.0 mi East 11.5 mph - N/A   Clear
5:53 AM 44.1 °F 37.7 °F 37.9 °F 79% 29.91 in 10.0 mi East 12.7 mph - N/A   Mostly Cloudy
6:53 AM 43.0 °F 36.4 °F 37.9 °F 82% 29.89 in 10.0 mi East 12.7 mph - N/A   Clear
7:53 AM 44.1 °F 37.1 °F 37.0 °F 76% 29.85 in 10.0 mi ESE 15.0 mph - N/A   Clear
8:53 AM 45.0 °F 40.1 °F 37.9 °F 76% 29.85 in 10.0 mi East 9.2 mph - N/A   Overcast
9:53 AM 44.1 °F 39.5 °F 39.9 °F 85% 29.83 in 10.0 mi ENE 8.1 mph - 0.01 in Rain Light Rain
10:53 AM 48.0 °F - 39.9 °F 74% 29.82 in 10.0 mi SSE 17.3 mph - 0.00 in   Overcast
11:53 AM 48.9 °F - 39.9 °F 71% 29.82 in 10.0 mi South 10.4 mph - 0.00 in   Mostly Cloudy
12:22 PM 45.0 °F 40.1 °F 41.0 °F 86% 29.84 in 4.0 mi NNW 9.2 mph 21.9 mph 0.03 in Rain Light Rain
12:53 PM 46.9 °F - 41.0 °F 80% 29.82 in 10.0 mi SSE 8.1 mph - 0.04 in   Overcast
1:53 PM 52.0 °F - 35.1 °F 53% 29.79 in 10.0 mi Variable 5.8 mph - N/A   Mostly Cloudy
2:53 PM 52.0 °F - 35.1 °F 53% 29.79 in 10.0 mi SW 16.1 mph - N/A   Clear
3:44 PM 51.1 °F - 34.0 °F 52% 29.81 in 10.0 mi West 11.5 mph - N/A   Partly Cloudy
3:53 PM 52.0 °F - 30.0 °F 43% 29.82 in 10.0 mi West 13.8 mph - N/A   Partly Cloudy
4:53 PM 46.9 °F - 25.0 °F 42% 29.84 in 10.0 mi SW 13.8 mph - N/A   Clear
5:53 PM 41.0 °F 35.2 °F 21.9 °F 47% 29.87 in 10.0 mi West 9.2 mph - N/A   Clear
6:53 PM 35.1 °F 27.9 °F 24.1 °F 64% 29.91 in 10.0 mi NNW 9.2 mph - N/A   Mostly Cloudy
7:53 PM 39.0 °F 31.8 °F 23.0 °F 53% 29.92 in 10.0 mi NNW 11.5 mph - N/A   Mostly Cloudy
8:53 PM 37.9 °F 29.6 °F 19.9 °F 48% 29.94 in 10.0 mi NW 13.8 mph 19.6 mph N/A   Clear
9:53 PM 34.0 °F 28.0 °F 21.0 °F 59% 29.96 in 10.0 mi Variable 6.9 mph - N/A   Clear
10:53 PM 30.9 °F 24.3 °F 21.0 °F 67% 29.96 in 10.0 mi WNW 6.9 mph - N/A   Clear
11:53 PM 30.0 °F - 21.0 °F 69% 29.96 in 10.0 mi Calm Calm - N/A   Mostly Cloudy